******** Week 148 almanac for PRN-1 ******** ID: 1 Health: 0 Eccentricity: 0.01134967804 Time of Applicability(s): 61440 Orbital Inclination(rad): 0.9866276806 Rate of Right Ascen(r/s): -7.680319916e-09 SQRT(A) (m 1/2): 5153.62793 Right Ascen at Week(rad): -1.784605761 Argument of Perigee(rad): 0.8818472058 Mean Anom(rad): -2.939042776 Af0(s): 0.0003459365112 Af1(s/s): -1.091394e-11 week: 148 ******** Week 148 almanac for PRN-2 ******** ID: 2 Health: 0 Eccentricity: 0.02067136765 Time of Applicability(s): 61440 Orbital Inclination(rad): 0.9649781783 Rate of Right Ascen(r/s): -7.817468486e-09 SQRT(A) (m 1/2): 5153.64209 Right Ascen at Week(rad): -1.873716712 Argument of Perigee(rad): -1.446392957 Mean Anom(rad): -2.78879093 Af0(s): -0.0005140058838 Af1(s/s): 0 week: 148 ******** Week 148 almanac for PRN-3 ******** ID: 3 Health: 0 Eccentricity: 0.003874778748 Time of Applicability(s): 61440 Orbital Inclination(rad): 0.9725162558 Rate of Right Ascen(r/s): -7.977475151e-09 SQRT(A) (m 1/2): 5153.631836 Right Ascen at Week(rad): -0.7490736035 Argument of Perigee(rad): 0.963544416 Mean Anom(rad): 2.185442131 Af0(s): -8.667254639e-05 Af1(s/s): -1.818989e-11 week: 148 ******** Week 148 almanac for PRN-4 ******** ID: 4 Health: 0 Eccentricity: 0.001695156097 Time of Applicability(s): 61440 Orbital Inclination(rad): 0.9614248557 Rate of Right Ascen(r/s): -7.840326581e-09 SQRT(A) (m 1/2): 5153.60498 Right Ascen at Week(rad): 0.3318929972 Argument of Perigee(rad): -3.073107304 Mean Anom(rad): -1.146692959 Af0(s): -0.0001507348633 Af1(s/s): 3.637979e-12 week: 148 ******** Week 148 almanac for PRN-5 ******** ID: 5 Health: 0 Eccentricity: 0.005873203278 Time of Applicability(s): 61440 Orbital Inclination(rad): 0.9594834112 Rate of Right Ascen(r/s): -8.126052768e-09 SQRT(A) (m 1/2): 5153.60498 Right Ascen at Week(rad): -0.7893578265 Argument of Perigee(rad): 1.010185147 Mean Anom(rad): -0.2873405176 Af0(s): -5.577189941e-05 Af1(s/s): 0 week: 148 ******** Week 148 almanac for PRN-6 ******** ID: 6 Health: 0 Eccentricity: 0.00267457962 Time of Applicability(s): 61440 Orbital Inclination(rad): 0.9860045009 Rate of Right Ascen(r/s): -7.646032773e-09 SQRT(A) (m 1/2): 5153.622559 Right Ascen at Week(rad): -1.792878621 Argument of Perigee(rad): -0.9692575207 Mean Anom(rad): -2.599901944 Af0(s): 0.0001529958862 Af1(s/s): 1.091394e-11 week: 148 ******** Week 148 almanac for PRN-7 ******** ID: 7 Health: 0 Eccentricity: 0.0155081749 Time of Applicability(s): 61440 Orbital Inclination(rad): 0.950680998 Rate of Right Ascen(r/s): -7.920329913e-09 SQRT(A) (m 1/2): 5153.644531 Right Ascen at Week(rad): 1.350875689 Argument of Perigee(rad): -2.293014406 Mean Anom(rad): 2.677082225 Af0(s): 0.0002434368042 Af1(s/s): 3.637979e-12 week: 148 ******** Week 148 almanac for PRN-8 ******** ID: 8 Health: 0 Eccentricity: 0.007254600525 Time of Applicability(s): 61440 Orbital Inclination(rad): 0.9651040127 Rate of Right Ascen(r/s): -7.943188008e-09 SQRT(A) (m 1/2): 5153.667969 Right Ascen at Week(rad): -2.86414137 Argument of Perigee(rad): 0.09686324685 Mean Anom(rad): -0.6643938193 Af0(s): -4.371311035e-05 Af1(s/s): 0 week: 148 ******** Week 148 almanac for PRN-9 ******** ID: 9 Health: 0 Eccentricity: 0.002278804779 Time of Applicability(s): 61440 Orbital Inclination(rad): 0.9544320604 Rate of Right Ascen(r/s): -7.931758961e-09 SQRT(A) (m 1/2): 5153.57373 Right Ascen at Week(rad): 0.27902384 Argument of Perigee(rad): 1.871826949 Mean Anom(rad): -0.315498952 Af0(s): -0.00028112052 Af1(s/s): 0 week: 148 ******** Week 148 almanac for PRN-10 ******** ID: 10 Health: 0 Eccentricity: 0.007493019104 Time of Applicability(s): 61440 Orbital Inclination(rad): 0.9723424845 Rate of Right Ascen(r/s): -7.966046103e-09 SQRT(A) (m 1/2): 5153.625977 Right Ascen at Week(rad): -0.7518666769 Argument of Perigee(rad): -2.519763432 Mean Anom(rad): 1.31765729 Af0(s): -0.0002472051758 Af1(s/s): -1.091394e-11 week: 148 ******** Week 148 almanac for PRN-11 ******** ID: 11 Health: 255 Eccentricity: 0.000280380249 Time of Applicability(s): 61440 Orbital Inclination(rad): 0.9617244613 Rate of Right Ascen(r/s): -7.908900866e-09 SQRT(A) (m 1/2): 5153.720215 Right Ascen at Week(rad): -1.740616914 Argument of Perigee(rad): 2.849413881 Mean Anom(rad): -0.7932620623 Af0(s): -7.762845459e-05 Af1(s/s): 1.455192e-11 week: 148 ******** Week 148 almanac for PRN-12 ******** ID: 12 Health: 0 Eccentricity: 0.008661270142 Time of Applicability(s): 61440 Orbital Inclination(rad): 0.9704070322 Rate of Right Ascen(r/s): -8.011762293e-09 SQRT(A) (m 1/2): 5153.553711 Right Ascen at Week(rad): 2.463777253 Argument of Perigee(rad): 1.244132572 Mean Anom(rad): 2.020447068 Af0(s): -0.0001318930054 Af1(s/s): -7.275958e-12 week: 148 ******** Week 148 almanac for PRN-13 ******** ID: 13 Health: 0 Eccentricity: 0.005798816681 Time of Applicability(s): 61440 Orbital Inclination(rad): 0.9688370988 Rate of Right Ascen(r/s): -7.760323248e-09 SQRT(A) (m 1/2): 5153.626953 Right Ascen at Week(rad): 0.4316796459 Argument of Perigee(rad): 0.9631358289 Mean Anom(rad): -1.249103778 Af0(s): 0.0002034920654 Af1(s/s): 7.275958e-12 week: 148 ******** Week 148 almanac for PRN-14 ******** ID: 14 Health: 0 Eccentricity: 0.001407146454 Time of Applicability(s): 61440 Orbital Inclination(rad): 0.9537909044 Rate of Right Ascen(r/s): -8.171768958e-09 SQRT(A) (m 1/2): 5153.59082 Right Ascen at Week(rad): 2.432623511 Argument of Perigee(rad): 3.023859629 Mean Anom(rad): 2.079756622 Af0(s): -6.406231689e-05 Af1(s/s): -3.637979e-12 week: 148 ******** Week 148 almanac for PRN-15 ******** ID: 15 Health: 0 Eccentricity: 0.01392459869 Time of Applicability(s): 61440 Orbital Inclination(rad): 0.9303078157 Rate of Right Ascen(r/s): -8.228914196e-09 SQRT(A) (m 1/2): 5153.675781 Right Ascen at Week(rad): 0.1732450788 Argument of Perigee(rad): 1.07438464 Mean Anom(rad): -1.666393741 Af0(s): -6.783068848e-05 Af1(s/s): 3.637979e-12 week: 148 ******** Week 148 almanac for PRN-16 ******** ID: 16 Health: 0 Eccentricity: 0.01273202896 Time of Applicability(s): 61440 Orbital Inclination(rad): 0.9703710795 Rate of Right Ascen(r/s): -8.011762293e-09 SQRT(A) (m 1/2): 5153.546875 Right Ascen at Week(rad): 2.482397368 Argument of Perigee(rad): 0.7052705125 Mean Anom(rad): 0.1661807527 Af0(s): -0.0003685467407 Af1(s/s): -3.637979e-12 week: 148 ******** Week 148 almanac for PRN-17 ******** ID: 17 Health: 0 Eccentricity: 0.01364564896 Time of Applicability(s): 61440 Orbital Inclination(rad): 0.9801861597 Rate of Right Ascen(r/s): -7.760323248e-09 SQRT(A) (m 1/2): 5153.709473 Right Ascen at Week(rad): -2.782415697 Argument of Perigee(rad): -1.500955635 Mean Anom(rad): -0.7578599129 Af0(s): 0.0004514509155 Af1(s/s): 3.637979e-12 week: 148 ******** Week 148 almanac for PRN-18 ******** ID: 18 Health: 0 Eccentricity: 0.002095222473 Time of Applicability(s): 61440 Orbital Inclination(rad): 0.9704130243 Rate of Right Ascen(r/s): -7.817468486e-09 SQRT(A) (m 1/2): 5153.577148 Right Ascen at Week(rad): -1.776655351 Argument of Perigee(rad): 3.106174402 Mean Anom(rad): -2.740704977 Af0(s): 0.0001944479736 Af1(s/s): -7.275958e-12 week: 148 ******** Week 148 almanac for PRN-19 ******** ID: 19 Health: 0 Eccentricity: 0.008950233459 Time of Applicability(s): 61440 Orbital Inclination(rad): 0.9789278161 Rate of Right Ascen(r/s): -7.771752296e-09 SQRT(A) (m 1/2): 5153.638672 Right Ascen at Week(rad): -2.737543389 Argument of Perigee(rad): 2.004712529 Mean Anom(rad): 1.65017459 Af0(s): 9.119459228e-05 Af1(s/s): 3.637979e-12 week: 148 ******** Week 148 almanac for PRN-20 ******** ID: 20 Health: 0 Eccentricity: 0.005200386047 Time of Applicability(s): 61440 Orbital Inclination(rad): 0.9416329082 Rate of Right Ascen(r/s): -8.286059433e-09 SQRT(A) (m 1/2): 5153.681641 Right Ascen at Week(rad): -0.9032360512 Argument of Perigee(rad): 3.124663439 Mean Anom(rad): -1.910720253 Af0(s): 0.0004084914795 Af1(s/s): 0 week: 148 ******** Week 148 almanac for PRN-21 ******** ID: 21 Health: 0 Eccentricity: 0.02457523346 Time of Applicability(s): 61440 Orbital Inclination(rad): 0.9592197583 Rate of Right Ascen(r/s): -7.851755628e-09 SQRT(A) (m 1/2): 5153.539062 Right Ascen at Week(rad): -1.875291888 Argument of Perigee(rad): -1.010671631 Mean Anom(rad): -0.5793792258 Af0(s): 0.0001243562622 Af1(s/s): 0 week: 148 ******** Week 148 almanac for PRN-22 ******** ID: 22 Health: 0 Eccentricity: 0.01285362244 Time of Applicability(s): 61440 Orbital Inclination(rad): 0.9615566821 Rate of Right Ascen(r/s): -7.828897533e-09 SQRT(A) (m 1/2): 5153.604004 Right Ascen at Week(rad): 0.3801879256 Argument of Perigee(rad): -1.874843604 Mean Anom(rad): -0.8886156713 Af0(s): 0.0001658083496 Af1(s/s): 7.275958e-12 week: 148 ******** Week 148 almanac for PRN-23 ******** ID: 23 Health: 0 Eccentricity: 0.001973628998 Time of Applicability(s): 61440 Orbital Inclination(rad): 0.9673810154 Rate of Right Ascen(r/s): -8.011762293e-09 SQRT(A) (m 1/2): 5153.646484 Right Ascen at Week(rad): -0.7766781421 Argument of Perigee(rad): 2.951940423 Mean Anom(rad): 2.642401001 Af0(s): 3.014697266e-06 Af1(s/s): -3.637979e-12 week: 148 ******** Week 148 almanac for PRN-24 ******** ID: 24 Health: 0 Eccentricity: 0.01232528687 Time of Applicability(s): 61440 Orbital Inclination(rad): 0.9342026888 Rate of Right Ascen(r/s): -8.057478483e-09 SQRT(A) (m 1/2): 5153.64209 Right Ascen at Week(rad): 1.26824633 Argument of Perigee(rad): 0.8065023838 Mean Anom(rad): -2.640961396 Af0(s): 0.0002178118774 Af1(s/s): 0 week: 148 ******** Week 148 almanac for PRN-25 ******** ID: 25 Health: 0 Eccentricity: 0.01047134399 Time of Applicability(s): 61440 Orbital Inclination(rad): 0.9577816513 Rate of Right Ascen(r/s): -8.126052768e-09 SQRT(A) (m 1/2): 5153.65918 Right Ascen at Week(rad): 2.38716435 Argument of Perigee(rad): 0.9786950979 Mean Anom(rad): 1.772338408 Af0(s): 0.0002223339233 Af1(s/s): 7.275958e-12 week: 148 ******** Week 148 almanac for PRN-26 ******** ID: 26 Health: 0 Eccentricity: 0.006852149963 Time of Applicability(s): 61440 Orbital Inclination(rad): 0.9386008993 Rate of Right Ascen(r/s): -8.320346576e-09 SQRT(A) (m 1/2): 5153.635742 Right Ascen at Week(rad): 2.340332246 Argument of Perigee(rad): 0.3647275264 Mean Anom(rad): 1.120916014 Af0(s): 0.0001431981201 Af1(s/s): 3.637979e-12 week: 148 ******** Week 148 almanac for PRN-27 ******** ID: 27 Health: 0 Eccentricity: 0.01017379761 Time of Applicability(s): 61440 Orbital Inclination(rad): 0.9737985679 Rate of Right Ascen(r/s): -7.851755628e-09 SQRT(A) (m 1/2): 5153.603516 Right Ascen at Week(rad): -2.844796209 Argument of Perigee(rad): 0.6350695445 Mean Anom(rad): -0.7154911838 Af0(s): 8.441152344e-05 Af1(s/s): 1.818989e-11 week: 148 ******** Week 148 almanac for PRN-29 ******** ID: 29 Health: 0 Eccentricity: 0.001805782318 Time of Applicability(s): 61440 Orbital Inclination(rad): 0.9821995095 Rate of Right Ascen(r/s): -7.737465153e-09 SQRT(A) (m 1/2): 5153.711426 Right Ascen at Week(rad): -2.769427044 Argument of Perigee(rad): 2.266142404 Mean Anom(rad): -0.5966679683 Af0(s): -0.0003768371582 Af1(s/s): -3.637979e-12 week: 148 ******** Week 148 almanac for PRN-30 ******** ID: 30 Health: 0 Eccentricity: 0.005485057831 Time of Applicability(s): 61440 Orbital Inclination(rad): 0.9358445276 Rate of Right Ascen(r/s): -8.068907531e-09 SQRT(A) (m 1/2): 5153.527832 Right Ascen at Week(rad): 1.364146345 Argument of Perigee(rad): -2.748453902 Mean Anom(rad): 2.708798476 Af0(s): -0.0004047231079 Af1(s/s): -3.637979e-12 week: 148 ******** Week 148 almanac for PRN-31 ******** ID: 31 Health: 0 Eccentricity: 0.01045703888 Time of Applicability(s): 61440 Orbital Inclination(rad): 0.9549054373 Rate of Right Ascen(r/s): -7.851755628e-09 SQRT(A) (m 1/2): 5153.634766 Right Ascen at Week(rad): 1.368938537 Argument of Perigee(rad): 0.3739542561 Mean Anom(rad): 2.223804759 Af0(s): -0.0001288783081 Af1(s/s): 0 week: 148 ******** Week 148 almanac for PRN-32 ******** ID: 32 Health: 0 Eccentricity: 0.005538463592 Time of Applicability(s): 61440 Orbital Inclination(rad): 0.9582849887 Rate of Right Ascen(r/s): -7.886042771e-09 SQRT(A) (m 1/2): 5153.719727 Right Ascen at Week(rad): 0.290184524 Argument of Perigee(rad): -2.360735014 Mean Anom(rad): -0.05975634146 Af0(s): -4.974250488e-05 Af1(s/s): -7.275958e-12 week: 148